GW1515 Weather Reports


Display with metric or nautical units.
time (UTC)temp
F
wind
direction
speed
MPH
gust
MPH
rain 1hr
in
rain 24hr
in
rain mn
in
humidity
%
barometer
mb
20260901193655 94 211 5.0 12.0 0.00 0.05 0.05 62 1015.6
20260901193148 95 252 3.0 9.0 0.00 0.05 0.05 64 1015.5
20260901192643 95 242 4.0 8.0 0.00 0.05 0.05 65 1015.4
20260901192138 94 216 9.0 10.0 0.00 0.05 0.05 64 1015.5
20260901191634 94 226 3.0 11.0 0.00 0.05 0.05 66 1015.5
20260901191130 94 185 3.0 9.0 0.00 0.05 0.05 65 1015.6
20260901190626 93 244 3.0 7.0 0.00 0.05 0.05 68 1015.6
20260901190125 93 251 4.0 8.0 0.00 0.05 0.05 65 1015.7
20260901185623 93 216 8.0 14.0 0.00 0.05 0.05 66 1015.7
20260901185122 93 253 4.0 8.0 0.00 0.05 0.05 66 1015.8
20260901184618 93 217 5.0 13.0 0.00 0.05 0.05 66 1015.7
20260901184113 92 208 6.0 16.0 0.00 0.05 0.05 68 1015.8
20260901183608 94 276 3.0 11.0 0.00 0.05 0.05 67 1015.7
20260901183103 93 263 5.0 10.0 0.00 0.05 0.05 68 1016.0
20260901182600 93 247 3.0 8.0 0.00 0.05 0.05 66 1015.9
20260901182059 94 293 1.0 11.0 0.00 0.05 0.05 65 1015.9
20260901181558 93 215 4.0 8.0 0.00 0.05 0.05 70 1015.9
20260901181052 91 206 5.0 14.0 0.00 0.05 0.05 72 1015.9
20260901180551 92 164 3.0 9.0 0.00 0.05 0.05 72 1015.9
20260901180046 91 255 3.0 11.0 0.00 0.05 0.05 71 1015.8
20260901175540 91 238 4.0 14.0 0.00 0.05 0.05 71 1015.8
20260901175034 92 159 5.0 10.0 0.00 0.05 0.05 70 1015.8
20260901174531 92 220 4.0 8.0 0.00 0.05 0.05 72 1016.1
20260901174027 92 217 3.0 8.0 0.00 0.05 0.05 70 1015.8
20260901173526 91 226 3.0 10.0 0.00 0.05 0.05 72 1016.0
20260901173022 90 189 3.0 9.0 0.00 0.05 0.05 72 1016.1
20260901172518 90 245 4.0 7.0 0.00 0.05 0.05 74 1016.1
20260901172016 90 217 5.0 9.0 0.00 0.05 0.05 72 1016.1
20260901171515 90 189 5.0 8.0 0.00 0.05 0.05 74 1016.2
20260901171014 90 241 3.0 6.0 0.00 0.05 0.05 73 1016.1
20260901170508 88 221 3.0 9.0 0.00 0.05 0.05 75 1016.2
20260901170009 89 184 4.0 7.0 0.00 0.05 0.05 75 1016.4
20260901165503 88 194 3.0 11.0 0.00 0.05 0.05 75 1016.2
20260901164958 89 194 4.0 4.0 0.00 0.05 0.05 75 1016.4
20260901164454 86 161 5.0 8.0 0.00 0.05 0.05 78 1016.3
20260901163949 86 237 3.0 7.0 0.00 0.05 0.05 78 1016.3
20260901163444 86 191 3.0 6.0 0.00 0.05 0.05 79 1016.3
20260901162942 85 220 5.0 8.0 0.00 0.05 0.05 80 1016.5
20260901162432 86 209 4.0 11.0 0.00 0.05 0.05 79 1016.4
20260901161932 86 198 5.0 6.0 0.00 0.05 0.05 79 1016.4
20260901161431 85 199 4.0 9.0 0.00 0.05 0.05 80 1016.5
20260901160926 85 206 9.0 10.0 0.00 0.05 0.05 79 1016.6
20260901160422 85 215 4.0 7.0 0.00 0.05 0.05 79 1016.4
20260901155921 86 290 0.0 5.0 0.00 0.05 0.05 77 1016.4
20260901155416 86 238 4.0 7.0 0.00 0.05 0.05 78 1016.4
20260901154913 86 225 4.0 6.0 0.00 0.05 0.05 79 1016.4
20260901154412 86 245 4.0 9.0 0.00 0.05 0.05 77 1016.4
20260901153906 87 247 3.0 5.0 0.00 0.05 0.05 76 1016.4
20260901153406 87 245 2.0 4.0 0.00 0.05 0.05 76 1016.3
20260901152900 86 306 0.0 8.0 0.00 0.05 0.05 77 1016.5
20260901152355 85 242 2.0 7.0 0.00 0.05 0.05 78 1016.3
20260901151849 85 219 3.0 7.0 0.00 0.05 0.05 78 1016.4
20260901151344 85 280 2.0 6.0 0.00 0.05 0.05 78 1016.3
20260901150843 86 246 1.0 5.0 0.00 0.05 0.05 76 1016.2
20260901150341 85 275 1.0 4.0 0.00 0.05 0.05 78 1016.2
20260901145838 83 258 3.0 6.0 0.00 0.05 0.05 80 1016.3
20260901145333 83 233 2.0 6.0 0.00 0.05 0.05 80 1016.3
20260901144828 83 290 1.0 7.0 0.00 0.05 0.05 81 1016.2
20260901144324 81 268 1.0 6.0 0.00 0.05 0.05 83 1016.2
20260901143820 82 223 3.0 7.0 0.00 0.05 0.05 83 1016.1
20260901143316 81 200 3.0 7.0 0.00 0.05 0.05 84 1016.1
20260901142812 81 243 2.0 10.0 0.00 0.05 0.05 85 1016.1
20260901142310 80 210 5.0 7.0 0.00 0.05 0.05 86 1016.2
20260901141806 79 212 4.0 11.0 0.00 0.05 0.05 87 1016.3
20260901141301 79 211 7.0 7.0 0.00 0.05 0.05 87 1016.4
20260901140800 79 210 7.0 9.0 0.00 0.05 0.05 87 1016.1
20260901140258 79 203 6.0 10.0 0.00 0.05 0.05 87 1016.0
20260901135754 79 204 6.0 8.0 0.00 0.05 0.05 87 1016.2
20260901135253 78 241 3.0 7.0 0.00 0.05 0.05 88 1016.2
20260901134750 77 202 3.0 6.0 0.00 0.05 0.05 90 1016.3
20260901134249 77 207 3.0 7.0 0.00 0.05 0.05 90 1016.4
20260901133748 77 265 0.0 9.0 0.00 0.05 0.05 91 1016.2
20260901133243 77 214 4.0 5.0 0.00 0.05 0.05 92 1016.1
20260901132741 76 247 2.0 8.0 0.00 0.05 0.05 93 1016.5
20260901132236 76 242 2.0 4.0 0.00 0.05 0.05 94 1016.3
20260901131731 75 205 3.0 5.0 0.00 0.05 0.05 94 1016.5
20260901131230 75 224 2.0 4.0 0.00 0.05 0.05 94 1016.7
20260901130726 75 223 2.0 5.0 0.00 0.05 0.05 94 1016.7
20260901130225 75 206 4.0 5.0 0.00 0.05 0.05 95 1016.7
20260901125723 75 200 4.0 5.0 0.00 0.05 0.05 95 1016.7
20260901125218 75 230 1.0 3.0 0.00 0.05 0.05 95 1016.5
20260901124712 75 200 2.0 4.0 0.00 0.05 0.05 95 1016.5
20260901124207 75 200 1.0 4.0 0.00 0.05 0.05 95 1016.3
20260901123707 74 218 2.0 3.0 0.00 0.05 0.05 95 1016.4
20260901123202 74 215 3.0 4.0 0.00 0.05 0.05 95 1016.2
20260901122700 74 208 2.0 4.0 0.00 0.05 0.05 95 1016.3
20260901122155 74 201 5.0 6.0 0.00 0.05 0.05 95 1016.1
20260901121649 74 216 2.0 7.0 0.00 0.05 0.05 95 1016.0
20260901121144 74 211 5.0 7.0 0.00 0.05 0.05 96 1015.8
20260901120639 74 215 3.0 5.0 0.00 0.05 0.05 96 1015.7
20260901120133 74 181 2.0 4.0 0.02 0.05 0.05 96 1015.7
20260901115629 74 203 2.0 5.0 0.02 0.05 0.05 96 1015.7
20260901115125 74 205 3.0 5.0 0.00 0.05 0.05 96 1015.8
20260901114622 74 240 2.0 5.0 0.00 0.05 0.05 96 1016.0
20260901114120 74 208 3.0 5.0 0.00 0.05 0.05 95 1015.8
20260901113619 74 230 0.0 3.0 0.00 0.05 0.05 95 1015.7
20260901113114 74 210 2.0 4.0 0.00 0.05 0.05 95 1015.7
20260901112609 74 217 2.0 3.0 0.00 0.05 0.05 96 1015.7
20260901112103 74 239 1.0 3.0 0.00 0.05 0.05 96 1015.8
20260901111602 74 188 2.0 3.0 0.00 0.05 0.05 96 1015.3
20260901111101 74 29 0.0 1.0 0.00 0.05 0.05 95 1015.5
20260901110556 74 224 0.0 3.0 0.00 0.05 0.05 95 1015.3
20260901110052 75 188 2.0 4.0 0.00 0.05 0.05 95 1015.3
20260901105549 75 222 3.0 5.0 0.00 0.05 0.05 95 1015.3
20260901105042 74 196 2.0 8.0 0.00 0.05 0.05 95 1015.3
20260901104539 74 237 3.0 8.0 0.00 0.05 0.05 95 1015.3
20260901104033 75 211 3.0 7.0 0.00 0.05 0.05 95 1015.3
20260901103528 75 210 3.0 5.0 0.00 0.05 0.05 95 1015.4
20260901103023 75 205 3.0 6.0 0.00 0.05 0.05 94 1015.1
20260901102518 75 222 1.0 5.0 0.09 0.05 0.05 93 1015.0
20260901102013 76 222 3.0 6.0 0.09 0.05 0.05 92 1015.0
20260901101508 76 209 3.0 6.0 0.00 0.03 0.03 91 1015.3
20260901101002 75 212 4.0 7.0 0.00 0.03 0.03 92 1015.6
20260901100501 75 246 1.0 3.0 0.00 0.03 0.03 92 1015.5
20260901100000 76 251 0.0 3.0 0.00 0.03 0.03 91 1015.3
20260901095500 76 222 1.0 6.0 0.00 0.03 0.03 91 1015.3
20260901094958 76 220 3.0 6.0 0.00 0.03 0.03 90 1015.1
20260901094453 76 199 2.0 6.0 0.00 0.03 0.03 90 1015.2
20260901093952 76 198 4.0 5.0 0.00 0.04 0.04 90 1015.2
20260901093447 76 195 3.0 4.0 0.02 0.04 0.04 90 1015.3
20260901092942 76 217 3.0 7.0 0.00 0.03 0.03 89 1015.1
20260901092438 76 248 0.0 4.0 0.00 0.03 0.03 90 1015.2
20260901091933 76 210 4.0 5.0 0.00 0.03 0.03 89 1015.1
20260901091428 77 201 5.0 8.0 0.00 0.03 0.03 88 1014.9
20260901090924 77 249 2.0 4.0 0.00 0.03 0.03 88 1015.1
20260901090423 77 218 2.0 8.0 0.00 0.03 0.03 87 1015.1
20260901085919 77 266 3.0 5.0 0.00 0.03 0.03 87 1015.0
20260901085414 77 258 3.0 6.0 0.00 0.03 0.03 87 1015.0
20260901084911 77 234 4.0 8.0 0.00 0.03 0.03 87 1015.2
20260901084407 77 198 3.0 10.0 0.00 0.01 0.01 86 1015.0
20260901083902 77 229 3.0 11.0 0.00 0.01 0.01 87 1015.1
20260901083401 77 237 4.0 7.0 0.00 0.01 0.01 88 1015.0
20260901082859 77 223 2.0 4.0 0.00 0.01 0.01 89 1014.9
20260901082355 77 249 2.0 6.0 0.00 0.01 0.01 88 1015.3
20260901081850 77 209 2.0 9.0 0.02 0.01 0.01 88 1015.1
20260901081345 76 215 3.0 7.0 0.02 0.01 0.01 89 1015.0
20260901080839 77 172 0.0 3.0 0.00 0.01 0.01 89 1015.1
20260901080333 77 238 2.0 4.0 0.05 0.01 0.01 88 1014.9
20260901075828 78 225 2.0 5.0 0.05 0.01 0.01 86 1015.0
20260901075324 78 216 3.0 7.0 0.00 0.00 0.00 84 1015.1
20260901074819 78 243 3.0 10.0 0.00 0.00 0.00 84 1014.8
20260901074313 78 215 5.0 7.0 0.00 0.00 0.00 84 1014.8
20260901073809 78 209 2.0 12.0 0.00 0.00 0.00 84 1015.0
20260901073304 78 205 2.0 9.0 0.00 0.00 0.00 84 1014.9
20260901072800 78 213 7.0 9.0 0.00 0.00 0.00 84 1014.9
20260901072259 78 215 2.0 7.0 0.00 0.00 0.00 84 1014.7
20260901071754 78 217 5.0 7.0 0.00 0.00 0.00 84 1014.9
20260901071253 78 210 1.0 7.0 0.00 0.00 0.00 84 1014.8
20260901070752 78 217 2.0 11.0 0.00 0.00 0.00 84 1014.9
20260901070248 78 200 3.0 9.0 0.00 0.00 0.00 84 1014.8
20260901065747 78 210 7.0 12.0 0.00 0.00 0.00 84 1014.5
20260901065242 78 239 3.0 9.0 0.00 0.00 0.00 85 1014.7
20260901064738 78 206 3.0 9.0 0.00 0.00 0.00 85 1014.4
20260901064234 78 236 3.0 9.0 0.00 0.00 0.00 85 1014.7
20260901063731 78 217 7.0 10.0 0.00 0.00 0.00 85 1014.7
20260901063227 78 232 3.0 10.0 0.00 0.00 0.00 85 1014.6
20260901062723 78 222 7.0 9.0 0.00 0.00 0.00 85 1014.7
20260901062219 78 219 5.0 10.0 0.00 0.00 0.00 84 1014.7
20260901061714 78 221 8.0 10.0 0.00 0.00 0.00 84 1014.7
20260901061214 78 230 4.0 12.0 0.00 0.00 0.00 84 1014.7
20260901060709 79 228 3.0 9.0 0.00 0.00 0.00 84 1014.4
20260901060205 79 201 9.0 11.0 0.00 0.00 0.00 84 1014.9
20260901055700 78 234 3.0 10.0 0.00 0.00 0.00 85 1014.8
20260901055156 78 224 4.0 9.0 0.00 0.00 0.00 85 1015.0
20260901054653 78 208 7.0 10.0 0.00 0.00 0.00 85 1015.0
20260901054149 78 202 6.0 9.0 0.00 0.00 0.00 85 1014.8
20260901053645 78 208 9.0 10.0 0.00 0.00 0.00 86 1014.7
20260901053141 78 213 5.0 9.0 0.00 0.00 0.00 86 1014.9
20260901052636 78 222 7.0 10.0 0.00 0.00 0.00 86 1014.8
20260901052131 78 222 3.0 7.0 0.00 0.00 0.00 87 1014.9
20260901051630 78 212 2.0 9.0 0.00 0.00 0.00 86 1014.8
20260901051130 78 203 8.0 8.0 0.00 0.00 0.00 86 1014.8
20260901050625 78 226 4.0 10.0 0.00 0.00 0.00 86 1014.9
20260901050120 79 242 2.0 9.0 0.00 0.00 0.00 86 1015.0
20260901045615 79 216 4.0 9.0 0.00 0.21 0.21 86 1015.0
20260901045110 79 229 4.0 9.0 0.00 0.21 0.21 86 1015.1
20260901044606 79 204 7.0 11.0 0.00 0.21 0.21 85 1014.9
20260901044101 79 222 4.0 8.0 0.00 0.21 0.21 85 1014.9
20260901043557 79 226 2.0 6.0 0.00 0.21 0.21 85 1015.0
20260901043052 79 208 5.0 8.0 0.00 0.21 0.21 85 1015.0
20260901042551 79 203 9.0 13.0 0.00 0.21 0.21 85 1015.1
20260901042047 80 187 3.0 10.0 0.00 0.21 0.21 85 1014.9
20260901041542 80 200 6.0 10.0 0.00 0.21 0.21 85 1015.1
20260901041037 80 215 5.0 9.0 0.00 0.21 0.21 85 1014.9
20260901040536 80 239 3.0 10.0 0.00 0.21 0.21 85 1014.9
20260901040036 80 231 2.0 9.0 0.00 0.21 0.21 85 1014.7
20260901035534 79 225 4.0 9.0 0.00 0.21 0.21 85 1015.0
20260901035033 79 219 3.0 7.0 0.00 0.21 0.21 86 1014.9
20260901034533 79 215 4.0 7.0 0.00 0.21 0.21 86 1015.0
20260901034028 79 208 4.0 5.0 0.00 0.21 0.21 86 1014.8
20260901033527 79 206 3.0 6.0 0.00 0.21 0.21 86 1015.1
20260901033022 80 245 3.0 8.0 0.00 0.21 0.21 85 1015.0
20260901032521 80 201 4.0 7.0 0.00 0.21 0.21 85 1015.1
20260901032016 80 199 5.0 9.0 0.00 0.21 0.21 85 1014.8
20260901031511 80 211 3.0 8.0 0.00 0.21 0.21 85 1014.8
20260901031007 80 203 3.0 6.0 0.00 0.21 0.21 86 1015.1
20260901030506 80 207 3.0 6.0 0.00 0.21 0.21 85 1015.0
20260901030001 80 182 2.0 5.0 0.00 0.21 0.21 85 1015.0
20260901025455 80 179 3.0 6.0 0.00 0.21 0.21 85 1015.1
20260901024955 80 217 4.0 8.0 0.00 0.21 0.21 85 1015.3
20260901024450 80 217 4.0 5.0 0.00 0.21 0.21 87 1015.3
20260901023948 80 219 2.0 9.0 0.00 0.21 0.21 86 1015.3
20260901023443 80 180 3.0 9.0 0.00 0.21 0.21 87 1015.1
20260901022938 79 244 3.0 9.0 0.00 0.21 0.21 88 1015.0
20260901022434 79 208 4.0 6.0 0.00 0.21 0.21 89 1015.1
20260901021928 79 225 2.0 9.0 0.00 0.21 0.21 90 1014.9
20260901021424 79 197 4.0 7.0 0.00 0.21 0.21 91 1014.8
20260901020919 79 211 3.0 6.0 0.00 0.21 0.21 91 1015.1
20260901020415 78 185 2.0 7.0 0.00 0.21 0.21 92 1015.0
20260901015913 78 192 3.0 5.0 0.00 0.21 0.21 92 1015.3
20260901015410 78 206 1.0 4.0 0.00 0.21 0.21 93 1015.0
20260901014909 78 178 1.0 4.0 0.00 0.21 0.21 93 1015.2
20260901014406 78 211 1.0 4.0 0.00 0.21 0.21 93 1015.0
20260901013901 78 215 2.0 4.0 0.00 0.21 0.21 93 1015.0
20260901013356 78 219 0.0 4.0 0.00 0.21 0.21 93 1015.0
20260901012852 77 208 1.0 5.0 0.00 0.21 0.21 94 1014.8
20260901012347 77 205 0.0 2.0 0.00 0.21 0.21 95 1014.9
20260901011843 77 186 1.0 2.0 0.00 0.21 0.21 95 1014.8
20260901011338 77 230 0.0 0.0 0.00 0.21 0.21 95 1015.1
20260901010831 77 255 0.0 1.0 0.00 0.21 0.21 95 1014.7
20260901010326 77 252 0.0 2.0 0.00 0.21 0.21 95 1014.7
20260901005825 77 284 0.0 2.0 0.00 0.21 0.21 95 1014.8
20260901005320 77 339 0.0 2.0 0.00 0.21 0.21 95 1014.6
20260901004820 77 287 1.0 2.0 0.00 0.21 0.21 94 1014.7
20260901004314 77 331 1.0 2.0 0.00 0.21 0.21 94 1014.7
20260901003814 77 281 1.0 2.0 0.00 0.21 0.21 93 1014.6
20260901003309 77 129 0.0 1.0 0.00 0.21 0.21 93 1014.5
20260901002803 78 250 2.0 3.0 0.00 0.21 0.21 92 1014.7
20260901002258 78 222 0.0 3.0 0.00 0.21 0.21 92 1014.3
20260901001753 78 204 1.0 6.0 0.00 0.21 0.21 91 1014.1
20260901001248 79 196 3.0 12.0 0.02 0.21 0.21 91 1014.1
20260901000743 80 203 3.0 9.0 0.17 0.21 0.21 91 1014.2
20260901000241 80 156 9.0 10.0 0.47 0.21 0.21 91 1014.0
20260831235737 81 198 7.0 14.0 0.45 0.18 0.18 90 1014.2
20260831235233 84 166 3.0 6.0 0.12 0.13 0.13 81 1015.4
20260831234733 84 206 2.0 3.0 0.00 0.11 0.11 81 1015.8
20260831234233 84 289 2.0 2.0 0.00 0.11 0.11 80 1015.1
20260831233728 85 296 1.0 2.0 0.00 0.11 0.11 80 1015.0
20260831233224 85 257 0.0 3.0 0.00 0.11 0.11 80 1015.1
20260831232723 85 218 0.0 3.0 0.00 0.11 0.11 79 1014.7
20260831232220 85 210 2.0 5.0 0.00 0.11 0.11 77 1014.8
20260831231716 86 222 4.0 5.0 0.00 0.11 0.11 76 1014.5
20260831231212 86 194 4.0 7.0 0.00 0.11 0.11 76 1014.4
20260831230712 86 155 5.0 7.0 0.00 0.11 0.11 75 1014.3
20260831230207 87 236 2.0 5.0 0.00 0.11 0.11 72 1014.5
20260831225706 88 197 4.0 6.0 0.00 0.11 0.11 69 1014.4
20260831225201 88 244 2.0 6.0 0.00 0.11 0.11 67 1014.3
20260831224656 88 202 9.0 10.0 0.00 0.11 0.11 67 1014.7
20260831224152 88 252 2.0 8.0 0.00 0.11 0.11 68 1015.0
20260831223647 89 242 3.0 6.0 0.00 0.11 0.11 68 1014.8
20260831223144 89 231 3.0 5.0 0.00 0.11 0.11 67 1014.5
20260831222639 90 286 2.0 9.0 0.00 0.11 0.11 67 1014.3
20260831222135 90 227 1.0 9.0 0.00 0.11 0.11 66 1014.3
20260831221630 90 218 3.0 8.0 0.00 0.11 0.11 65 1014.2
20260831221125 91 188 4.0 8.0 0.00 0.11 0.11 64 1014.0
20260831220620 91 252 3.0 8.0 0.00 0.11 0.11 63 1014.0
20260831220115 91 218 8.0 12.0 0.00 0.11 0.11 62 1014.1
20260831215611 91 191 7.0 11.0 0.00 0.11 0.11 64 1013.9
20260831215106 91 214 5.0 8.0 0.00 0.11 0.11 63 1013.9
20260831214604 92 210 4.0 6.0 0.00 0.11 0.11 62 1013.9
20260831214100 93 215 5.0 6.0 0.00 0.11 0.11 60 1014.1
20260831213556 93 234 3.0 5.0 0.00 0.11 0.11 59 1014.1
20260831213051 94 293 4.0 5.0 0.00 0.11 0.11 58 1014.2
20260831212547 94 276 2.0 4.0 0.00 0.11 0.11 59 1014.1
20260831212043 93 248 3.0 5.0 0.00 0.11 0.11 62 1014.5
20260831211537 91 298 2.0 9.0 0.00 0.11 0.11 64 1014.3
20260831211036 91 238 2.0 7.0 0.00 0.11 0.11 64 1014.3
20260831210531 91 208 4.0 7.0 0.00 0.10 0.10 61 1014.3
20260831210022 91 207 5.0 14.0 0.00 0.10 0.10 61 1014.2
20260831205516 91 209 4.0 7.0 0.00 0.10 0.10 64 1014.4
20260831205012 91 219 1.0 8.0 0.00 0.10 0.10 65 1014.2
20260831204507 90 212 5.0 11.0 0.00 0.10 0.10 64 1014.2
20260831204005 91 248 4.0 9.0 0.00 0.10 0.10 63 1014.4
20260831203505 92 202 4.0 10.0 0.00 0.10 0.10 61 1014.7
20260831203004 92 243 4.0 17.0 0.00 0.10 0.10 63 1014.4
20260831202458 91 196 7.0 16.0 0.00 0.10 0.10 62 1014.0
20260831201957 92 216 7.0 13.0 0.00 0.10 0.10 60 1014.1
20260831201456 90 222 5.0 17.0 0.00 0.10 0.10 64 1013.9
20260831200952 91 215 9.0 10.0 0.00 0.10 0.10 62 1013.9
20260831200447 90 231 6.0 10.0 0.00 0.10 0.10 63 1013.8
20260831195942 89 202 7.0 15.0 0.00 0.10 0.10 64 1014.2
20260831195437 89 194 3.0 9.0 0.00 0.10 0.10 64 1014.3
20260831194932 90 208 5.0 13.0 0.00 0.10 0.10 63 1014.5
20260831194428 91 218 2.0 15.0 0.00 0.10 0.10 62 1014.3